Weather History for KOXC - March, 2013

Change the Weather History Date:

Wednesday, March 6, 2013

  Actual Average Record
Temperature  
Mean Temperature 35 °F -  
Max Temperature 37 °F 38 °F 55 °F (2004)
Min Temperature 33 °F 23 °F 3 °F (2007)
Degree Days  
Heating Degree Days 30    
Moisture  
Dew Point 27 °F    
Average Humidity 71    
Maximum Humidity 81    
Minimum Humidity 65    
Precipitation  
Precipitation 0.00 in - - ()
Sea Level Pressure  
Sea Level Pressure 29.96 in    
Wind  
Wind Speed 10 mph (ENE)    
Max Wind Speed 24 mph    
Max Gust Speed 40 mph    
Visibility 9 miles    
Events Rain , Snow    
Averages and records for this station are not official NWS values.
T = Trace of Precipitation, MM = Missing Value Source: NWS Daily Summary

Daily Weather History Graph

Daily Weather History Graph

Search for Another Location

Airport or City:

Trip Planner

Search our weather history database for the weather conditions in past years. The results will help you decide how hot, cold, wet, or windy it might be!

Date:

Astronomy

Mar. 06, 2013 Rise Set
Actual Time 6:18 AM EST 5:49 PM EST
Civil Twilight 5:51 AM EST 6:16 PM EST
Nautical Twilight 5:19 AM EST 6:49 PM EST
Astronomical Twilight 4:46 AM EST 7:21 PM EST
Moon 2:28 AM EST (3/6) 12:25 PM EST (3/6)
Length of Visible Light 12h 25m
Length of Day
11h 30m
Waning Crescent, 30% of the Moon is Illuminated
Mar 6
Waning Crescent
Mar 11
New
Mar 19
First Quarter
Mar 27
Full
Apr 3
Last Quarter

Hourly Weather History & Observations

Time (EST) Temp. Windchill Dew Point Humidity Pressure Visibility Wind Dir Wind Speed Gust Speed Precip Events Conditions
12:15 AM 37.4 °F 33.8 °F 26.6 °F 65% 30.00 in 10.0 mi ESE 4.6 mph - N/A   Overcast
12:35 AM 37.4 °F 33.8 °F 26.6 °F 65% 30.01 in 10.0 mi ESE 4.6 mph - N/A   Overcast
12:55 AM 37.4 °F 32.1 °F 26.6 °F 65% 30.00 in 10.0 mi SE 6.9 mph - N/A   Overcast
1:15 AM 37.4 °F 33.8 °F 26.6 °F 65% 30.01 in 10.0 mi ESE 4.6 mph - N/A   Overcast
1:35 AM 37.4 °F 34.9 °F 26.6 °F 65% 30.01 in 10.0 mi East 3.5 mph - N/A   Overcast
2:15 AM 35.6 °F 31.7 °F 26.6 °F 70% 29.99 in 10.0 mi ENE 4.6 mph - N/A   Overcast
2:35 AM 35.6 °F 31.7 °F 26.6 °F 70% 29.98 in 10.0 mi ENE 4.6 mph - N/A   Overcast
2:55 AM 35.6 °F 31.7 °F 26.6 °F 70% 29.98 in 10.0 mi ENE 4.6 mph - N/A   Overcast
3:35 AM 35.6 °F 30.7 °F 26.6 °F 70% 29.97 in 10.0 mi East 5.8 mph - N/A   Overcast
3:55 AM 35.6 °F 29.2 °F 26.6 °F 70% 29.97 in 10.0 mi ENE 8.1 mph - N/A   Overcast
4:15 AM 35.6 °F 27.1 °F 26.6 °F 70% 29.97 in 10.0 mi ENE 12.7 mph 18.4 mph N/A   Overcast
4:55 AM 35.6 °F 28.0 °F 26.6 °F 70% 29.96 in 10.0 mi ENE 10.4 mph 16.1 mph N/A   Overcast
5:15 AM 35.6 °F 29.2 °F 26.6 °F 70% 29.96 in 10.0 mi ENE 8.1 mph 18.4 mph N/A   Mostly Cloudy
5:35 AM 35.6 °F 27.5 °F 26.6 °F 70% 29.96 in 10.0 mi ENE 11.5 mph 18.4 mph N/A   Overcast
5:45 AM 35.6 °F 27.5 °F 26.6 °F 70% 29.96 in 10.0 mi East 11.5 mph 18.4 mph N/A   Overcast
6:10 AM 35.6 °F 27.5 °F 28.4 °F 75% 29.96 in 3.0 mi ENE 11.5 mph 17.3 mph N/A Snow Light Snow
6:45 AM 35.6 °F 27.5 °F 28.4 °F 75% 29.96 in 9.0 mi East 11.5 mph 18.4 mph N/A   Overcast
7:45 AM 35.6 °F 27.5 °F 28.4 °F 75% 29.95 in 9.0 mi East 11.5 mph 20.7 mph N/A   Overcast
8:45 AM 35.6 °F 26.6 °F 28.4 °F 75% 29.95 in 9.0 mi East 13.8 mph 28.8 mph N/A   Overcast
9:05 AM 35.6 °F 27.1 °F 30.2 °F 81% 29.96 in 5.0 mi East 12.7 mph 23.0 mph N/A Rain Light Rain
9:30 AM 35.6 °F 27.5 °F 30.2 °F 81% 29.96 in 3.0 mi East 11.5 mph 19.6 mph N/A Rain Light Rain
10:45 AM 37.4 °F 28.9 °F 30.2 °F 75% 29.94 in 5.0 mi ENE 13.8 mph 20.7 mph N/A Rain Light Rain
11:50 AM 37.4 °F 28.9 °F 30.2 °F 75% 29.95 in 5.0 mi East 13.8 mph 25.3 mph N/A   Overcast
12:19 PM 37.4 °F 29.8 °F 28.4 °F 70% 29.93 in 4.0 mi ENE 11.5 mph 29.9 mph N/A Snow Light Snow
12:45 PM 37.4 °F 28.9 °F 30.2 °F 75% 29.92 in 8.0 mi East 13.8 mph 25.3 mph N/A   Overcast
1:15 PM 35.6 °F 26.6 °F 28.4 °F 75% 29.93 in 2.0 mi ENE 13.8 mph 25.3 mph N/A Snow Light Snow
1:45 PM 37.4 °F 29.8 °F 26.6 °F 65% 29.92 in 10.0 mi ENE 11.5 mph 20.7 mph N/A   Overcast
2:45 PM 37.4 °F 27.8 °F 26.6 °F 65% 29.92 in 10.0 mi ENE 17.3 mph 28.8 mph N/A   Overcast
3:45 PM 37.4 °F 27.8 °F 26.6 °F 65% 29.91 in 10.0 mi ENE 17.3 mph 28.8 mph N/A   Overcast
5:45 PM 35.6 °F 24.8 °F 26.6 °F 70% 29.94 in 10.0 mi NE 19.6 mph 34.5 mph N/A   Overcast
6:45 PM 35.6 °F 24.2 °F 26.6 °F 70% 29.96 in 10.0 mi NE 21.9 mph 32.2 mph N/A   Overcast
7:45 PM 33.8 °F 21.9 °F 24.8 °F 70% 29.95 in 10.0 mi NE 21.9 mph 35.7 mph N/A   Overcast
8:45 PM 33.8 °F 21.9 °F 24.8 °F 70% 29.96 in 7.0 mi NE 21.9 mph 29.9 mph N/A   Overcast
9:35 PM 33.8 °F 23.2 °F 24.8 °F 70% 29.95 in 10.0 mi NE 17.3 mph 40.3 mph N/A   Overcast
9:55 PM 33.8 °F 22.5 °F 24.8 °F 70% 29.95 in 10.0 mi NE 19.6 mph 35.7 mph N/A   Overcast
10:15 PM 33.8 °F 21.9 °F 24.8 °F 70% 29.94 in 10.0 mi NE 21.9 mph 33.4 mph N/A   Overcast
10:55 PM 33.8 °F 21.3 °F 24.8 °F 70% 29.94 in 10.0 mi NE 24.2 mph 33.4 mph N/A   Overcast
11:15 PM 33.8 °F 21.3 °F 24.8 °F 70% 29.94 in 10.0 mi NE 24.2 mph 33.4 mph N/A   Overcast
11:35 PM 33.8 °F 21.9 °F 24.8 °F 70% 29.94 in 9.0 mi NE 21.9 mph 36.8 mph N/A   Overcast
11:55 PM 33.8 °F 23.5 °F 24.8 °F 70% 29.94 in 10.0 mi NE 16.1 mph 34.5 mph N/A   Overcast